Home   Weather   New Haven   Past weeks

Flag for USA Past Weather in New Haven, Connecticut, USA — Yesterday and Last 2 Weeks

Now
54 °F

Fog.


Feels Like: 52 °F
Forecast: 53 / 73 °F
Wind: 7 mph from Southeast

Location: Tweed-New Haven Airport

Current Time: Apr 28, 2017 at 4:06:29 am

Latest Report: Apr 28, 2017 at 3:21 am


Visibility: 1 mi

Pressure: 29.88 "Hg

Humidity: 100%

Dew Point: 54 °F

Location of New HavenLocation

Past Weather in New Haven — Graph

°F

New Haven Temperature Yesterday

Maximum temperature yesterday: 64 °F (at 12:53 pm)
Minimum temperature yesterday: 54 °F (at 4:30 am)
Average temperature yesterday: 57 °F

High & Low Weather Summary for the Past Weeks

 TemperatureHumidityPressure
High74 °F (Apr 16, 1:53 pm)100% (Apr 15, 6:53 am)30.56 "Hg (Apr 15, 6:53 am)
Low36 °F (Apr 15, 6:53 am)23% (Apr 17, 6:53 pm)29.74 "Hg (Apr 16, 6:53 pm)
Average52 °F78%30.09 "Hg
* Reported Apr 13 2:53 am — Apr 28 2:31 am, New Haven, Weather by CustomWeather, © 2017

Note: Actual official high and low records may vary slightly from our data, if they occured in-between our weather recording intervals... More about our weather records

Advertising

New Haven Weather History for the Previous 24 Hours

Scroll right to see more
 ConditionsComfort  
Time TempWeatherWind HumidityBarometerVisibility
2:31 am
Fri, Apr 28
54 °FFog.7 mph100%29.90 "Hg1 mi
1:53 am54 °FFog.8 mph97%29.89 "Hg1 mi
1:30 am54 °FFog.9 mph97%29.90 "Hg1 mi
12:53 am54 °FFog.8 mph100%29.90 "Hg1 mi
12:12 am55 °FFog.10 mph96%29.91 "Hg1 mi
11:43 pm
Thu, Apr 27
56 °FFog.9 mph97%29.92 "Hg4 mi
10:53 pm56 °FLow clouds.7 mph93%29.92 "Hg7 mi
10:14 pm55 °FFog.6 mph96%29.93 "Hg3 mi
9:22 pm56 °FFog.6 mph93%29.93 "Hg4 mi
9:07 pm57 °FFog.6 mph90%29.93 "Hg5 mi
7:53 pm57 °FOvercast.5 mph87%29.92 "Hg10 mi
6:53 pm57 °FOvercast.7 mph83%29.92 "Hg10 mi
5:53 pm60 °FOvercast.8 mph83%29.89 "Hg10 mi
4:53 pm63 °FMostly cloudy.6 mph81%29.89 "Hg10 mi
3:53 pm63 °FMostly cloudy.9 mph81%29.90 "Hg10 mi
2:53 pm64 °FOvercast.7 mph81%29.91 "Hg10 mi
1:53 pm63 °FOvercast.8 mph84%29.91 "Hg10 mi
12:53 pm64 °FOvercast.6 mph84%29.91 "Hg10 mi
12:15 pm61 °FMore clouds than sun.5 mph93%29.92 "Hg10 mi
11:53 am60 °FFog.6 mph93%29.92 "Hg6 mi
11:06 am58 °FFog.5 mph97%29.93 "Hg6 mi
10:53 am58 °FFog.5 mph97%29.93 "Hg3 mi
10:00 am56 °FFog.6 mph97%29.93 "Hg5 mi
8:53 am59 °FFog.No wind96%29.91 "Hg6 mi
7:53 am56 °FFog.5 mph97%29.91 "Hg1 mi
7:31 am56 °FFog.No wind97%29.91 "Hg1 mi
6:53 am56 °FFog.No wind97%29.88 "Hg2 mi
6:30 am55 °FFog.No wind96%29.88 "Hg2 mi
6:09 am55 °FFog.No wind96%29.87 "Hg2 mi
5:53 am55 °FFog.No wind96%29.87 "Hg2 mi
5:35 am55 °FFog.No wind100%29.86 "Hg2 mi
5:15 am55 °FFog.No wind96%29.86 "Hg3 mi
4:53 am55 °FFog.No wind100%29.85 "Hg2 mi
4:30 am54 °FFog.No wind100%29.85 "Hg2 mi
4:18 am55 °FFog.No wind96%29.85 "Hg3 mi
Weather by CustomWeather, © 2017

See weather overviewHow to use our weather pages